| time (UTC) | temp F | wind direction | speed MPH | gust MPH | rain 1hr in | rain 24hr in | rain mn in | humidity % | barometer mb |
| 20260505102048 | 52 | 203 | 4.0 | 8.0 | 0.00 | 0.00 | 0.00 | 66 | 1012.8 |
| 20260505101553 | 52 | 184 | 5.0 | 8.0 | 0.00 | 0.00 | 0.00 | 66 | 1012.7 |
| 20260505101049 | 52 | 195 | 5.0 | 8.0 | 0.00 | 0.00 | 0.00 | 66 | 1012.7 |
| 20260505100550 | 52 | 196 | 4.0 | 7.0 | 0.00 | 0.00 | 0.00 | 66 | 1012.8 |
| 20260505100052 | 52 | 209 | 4.0 | 7.0 | 0.00 | 0.00 | 0.00 | 66 | 1012.8 |
| 20260505095549 | 52 | 187 | 4.0 | 6.0 | 0.00 | 0.00 | 0.00 | 66 | 1012.7 |
| 20260505095046 | 53 | 186 | 4.0 | 6.0 | 0.00 | 0.00 | 0.00 | 65 | 1012.6 |
| 20260505094554 | 53 | 177 | 4.0 | 6.0 | 0.00 | 0.00 | 0.00 | 65 | 1012.8 |
| 20260505094051 | 53 | 186 | 3.0 | 6.0 | 0.00 | 0.00 | 0.00 | 64 | 1012.8 |
| 20260505093552 | 53 | 208 | 3.0 | 6.0 | 0.00 | 0.00 | 0.00 | 64 | 1012.9 |
| 20260505093055 | 54 | 206 | 3.0 | 6.0 | 0.00 | 0.00 | 0.00 | 63 | 1012.7 |
| 20260505092549 | 54 | 205 | 4.0 | 6.0 | 0.00 | 0.00 | 0.00 | 63 | 1012.8 |
| 20260505092049 | 54 | 196 | 4.0 | 6.0 | 0.00 | 0.00 | 0.00 | 63 | 1012.7 |
| 20260505091552 | 54 | 207 | 3.0 | 6.0 | 0.00 | 0.00 | 0.00 | 62 | 1012.9 |
| 20260505091048 | 54 | 207 | 3.0 | 5.0 | 0.00 | 0.00 | 0.00 | 62 | 1012.9 |
| 20260505090546 | 54 | 207 | 3.0 | 7.0 | 0.00 | 0.00 | 0.00 | 62 | 1012.8 |
| 20260505090054 | 54 | 195 | 3.0 | 7.0 | 0.00 | 0.00 | 0.00 | 62 | 1012.8 |
| 20260505085552 | 54 | 174 | 4.0 | 7.0 | 0.00 | 0.00 | 0.00 | 62 | 1012.9 |
| 20260505085049 | 54 | 167 | 4.0 | 7.0 | 0.00 | 0.00 | 0.00 | 62 | 1012.8 |
| 20260505084555 | 54 | 172 | 4.0 | 7.0 | 0.00 | 0.00 | 0.00 | 63 | 1012.8 |
| 20260505084050 | 54 | 181 | 5.0 | 7.0 | 0.00 | 0.00 | 0.00 | 63 | 1012.8 |
| 20260505083548 | 54 | 172 | 5.0 | 8.0 | 0.00 | 0.00 | 0.00 | 62 | 1012.8 |
| 20260505083052 | 54 | 184 | 5.0 | 8.0 | 0.00 | 0.00 | 0.00 | 62 | 1012.9 |
| 20260505082548 | 54 | 176 | 5.0 | 8.0 | 0.00 | 0.00 | 0.00 | 63 | 1012.9 |
| 20260505082049 | 54 | 175 | 5.0 | 8.0 | 0.00 | 0.00 | 0.00 | 63 | 1012.8 |
| 20260505081600 | 54 | 176 | 5.0 | 8.0 | 0.00 | 0.00 | 0.00 | 63 | 1012.8 |
| 20260505081048 | 53 | 179 | 5.0 | 7.0 | 0.00 | 0.00 | 0.00 | 63 | 1012.7 |
| 20260505080549 | 53 | 197 | 3.0 | 4.0 | 0.00 | 0.00 | 0.00 | 63 | 1012.5 |
| 20260505080054 | 53 | 205 | 2.0 | 3.0 | 0.00 | 0.00 | 0.00 | 63 | 1012.4 |
| 20260505075547 | 53 | 255 | 1.0 | 4.0 | 0.00 | 0.00 | 0.00 | 63 | 1012.5 |
| 20260505075049 | 54 | 0 | 2.0 | 4.0 | 0.00 | 0.00 | 0.00 | 62 | 1012.3 |
| 20260505074600 | 54 | 326 | 1.0 | 5.0 | 0.00 | 0.00 | 0.00 | 61 | 1012.3 |
| 20260505074047 | 55 | 210 | 2.0 | 8.0 | 0.00 | 0.00 | 0.00 | 60 | 1012.3 |
| 20260505073548 | 55 | 199 | 4.0 | 11.0 | 0.00 | 0.00 | 0.00 | 60 | 1012.2 |
| 20260505073104 | 55 | 188 | 6.0 | 12.0 | 0.00 | 0.00 | 0.00 | 60 | 1012.1 |
| 20260505072549 | 55 | 184 | 7.0 | 12.0 | 0.00 | 0.00 | 0.00 | 59 | 1012.2 |
| 20260505072048 | 55 | 200 | 7.0 | 13.0 | 0.00 | 0.00 | 0.00 | 60 | 1011.9 |
| 20260505071602 | 55 | 173 | 8.0 | 15.0 | 0.00 | 0.00 | 0.00 | 59 | 1011.8 |
| 20260505071049 | 55 | 162 | 7.0 | 15.0 | 0.00 | 0.00 | 0.00 | 59 | 1011.8 |
| 20260505070549 | 55 | 168 | 9.0 | 15.0 | 0.00 | 0.00 | 0.00 | 59 | 1011.7 |
| 20260505070055 | 55 | 186 | 9.0 | 16.0 | 0.00 | 0.00 | 0.00 | 59 | 1011.7 |
| 20260505065549 | 55 | 194 | 8.0 | 16.0 | 0.00 | 0.00 | 0.00 | 59 | 1011.8 |
| 20260505065048 | 55 | 181 | 8.0 | 14.0 | 0.00 | 0.00 | 0.00 | 59 | 1011.8 |
| 20260505064553 | 55 | 181 | 7.0 | 14.0 | 0.00 | 0.00 | 0.00 | 59 | 1011.8 |
| 20260505064047 | 55 | 199 | 7.0 | 12.0 | 0.00 | 0.00 | 0.00 | 59 | 1011.8 |
| 20260505063548 | 55 | 200 | 6.0 | 12.0 | 0.00 | 0.00 | 0.00 | 59 | 1011.9 |
| 20260505063055 | 55 | 196 | 6.0 | 12.0 | 0.00 | 0.00 | 0.00 | 59 | 1011.9 |
| 20260505062548 | 55 | 188 | 6.0 | 12.0 | 0.00 | 0.00 | 0.00 | 58 | 1011.8 |
| 20260505062048 | 56 | 207 | 7.0 | 12.0 | 0.00 | 0.00 | 0.00 | 58 | 1011.8 |
| 20260505061604 | 56 | 205 | 7.0 | 13.0 | 0.00 | 0.00 | 0.00 | 57 | 1011.8 |
| 20260505061047 | 56 | 178 | 7.0 | 14.0 | 0.00 | 0.00 | 0.00 | 57 | 1011.8 |
| 20260505060549 | 56 | 231 | 9.0 | 16.0 | 0.00 | 0.00 | 0.00 | 56 | 1011.8 |
| 20260505055549 | 57 | 185 | 10.0 | 17.0 | 0.00 | 0.00 | 0.00 | 55 | 1011.9 |
| 20260505055049 | 57 | 183 | 10.0 | 19.0 | 0.00 | 0.00 | 0.00 | 55 | 1011.8 |
| 20260505054629 | 57 | 209 | 10.0 | 19.0 | 0.00 | 0.00 | 0.00 | 55 | 1011.7 |
| 20260505054048 | 57 | 191 | 11.0 | 18.0 | 0.00 | 0.00 | 0.00 | 55 | 1011.7 |
| 20260505053550 | 57 | 181 | 10.0 | 20.0 | 0.00 | 0.00 | 0.00 | 55 | 1011.7 |
| 20260505053114 | 57 | 191 | 11.0 | 20.0 | 0.00 | 0.00 | 0.00 | 55 | 1011.7 |
| 20260505052551 | 57 | 176 | 10.0 | 22.0 | 0.00 | 0.00 | 0.00 | 55 | 1011.6 |
| 20260505052046 | 57 | 210 | 12.0 | 22.0 | 0.00 | 0.00 | 0.00 | 54 | 1011.7 |
| 20260505051601 | 57 | 186 | 11.0 | 18.0 | 0.00 | 0.00 | 0.00 | 54 | 1011.7 |
| 20260505051049 | 57 | 194 | 9.0 | 16.0 | 0.00 | 0.00 | 0.00 | 55 | 1011.8 |
| 20260505050548 | 57 | 211 | 10.0 | 16.0 | 0.00 | 0.00 | 0.00 | 55 | 1011.8 |
| 20260505041558 | 57 | 209 | 9.0 | 12.0 | 0.00 | 0.00 | 0.00 | 54 | 1011.9 |
| 20260505041049 | 57 | 166 | 8.0 | 13.0 | 0.00 | 0.00 | 0.00 | 54 | 1011.9 |
| 20260505040549 | 57 | 184 | 8.0 | 13.0 | 0.00 | 0.00 | 0.00 | 53 | 1012.0 |
| 20260505040058 | 58 | 181 | 8.0 | 13.0 | 0.00 | 0.00 | 0.00 | 53 | 1012.1 |
| 20260505035549 | 58 | 179 | 9.0 | 13.0 | 0.00 | 0.00 | 0.00 | 53 | 1012.1 |
| 20260505035048 | 58 | 195 | 6.0 | 11.0 | 0.00 | 0.00 | 0.00 | 53 | 1012.2 |
| 20260505034553 | 58 | 187 | 7.0 | 12.0 | 0.00 | 0.00 | 0.00 | 53 | 1012.2 |
| 20260505034049 | 58 | 184 | 8.0 | 12.0 | 0.00 | 0.00 | 0.00 | 53 | 1012.1 |
| 20260505033548 | 58 | 174 | 8.0 | 14.0 | 0.00 | 0.00 | 0.00 | 53 | 1012.2 |
| 20260505033053 | 58 | 182 | 8.0 | 14.0 | 0.00 | 0.00 | 0.00 | 53 | 1012.3 |
| 20260505032549 | 58 | 195 | 9.0 | 15.0 | 0.00 | 0.00 | 0.00 | 53 | 1012.3 |
| 20260505032048 | 58 | 186 | 9.0 | 15.0 | 0.00 | 0.00 | 0.00 | 53 | 1012.4 |
| 20260505031607 | 58 | 174 | 9.0 | 14.0 | 0.00 | 0.00 | 0.00 | 53 | 1012.4 |
| 20260505031049 | 58 | 167 | 9.0 | 14.0 | 0.00 | 0.00 | 0.00 | 53 | 1012.5 |
| 20260505030549 | 58 | 150 | 10.0 | 14.0 | 0.00 | 0.00 | 0.00 | 54 | 1012.4 |
| 20260505030058 | 58 | 171 | 9.0 | 14.0 | 0.00 | 0.00 | 0.00 | 54 | 1012.5 |
| 20260505025548 | 58 | 199 | 9.0 | 14.0 | 0.00 | 0.00 | 0.00 | 54 | 1012.7 |
| 20260505025050 | 59 | 185 | 9.0 | 14.0 | 0.00 | 0.00 | 0.00 | 54 | 1012.7 |
| 20260505024550 | 59 | 220 | 8.0 | 16.0 | 0.00 | 0.00 | 0.00 | 55 | 1012.6 |
| 20260505024048 | 59 | 162 | 9.0 | 16.0 | 0.00 | 0.00 | 0.00 | 55 | 1012.7 |
| 20260505023552 | 59 | 193 | 9.0 | 16.0 | 0.00 | 0.00 | 0.00 | 55 | 1012.6 |
| 20260505023106 | 59 | 175 | 8.0 | 14.0 | 0.00 | 0.00 | 0.00 | 55 | 1012.6 |
| 20260505022548 | 59 | 178 | 9.0 | 14.0 | 0.00 | 0.00 | 0.00 | 55 | 1012.7 |
| 20260505022048 | 59 | 183 | 7.0 | 12.0 | 0.00 | 0.00 | 0.00 | 55 | 1012.7 |
| 20260505021554 | 59 | 191 | 7.0 | 12.0 | 0.00 | 0.00 | 0.00 | 55 | 1012.7 |
| 20260505021048 | 60 | 185 | 7.0 | 14.0 | 0.00 | 0.00 | 0.00 | 55 | 1012.7 |
| 20260505020552 | 60 | 173 | 8.0 | 14.0 | 0.00 | 0.00 | 0.00 | 55 | 1012.7 |
| 20260505020054 | 60 | 163 | 8.0 | 14.0 | 0.00 | 0.00 | 0.00 | 55 | 1012.7 |
| 20260505015547 | 60 | 194 | 7.0 | 14.0 | 0.00 | 0.00 | 0.00 | 55 | 1012.7 |
| 20260505015049 | 60 | 190 | 8.0 | 14.0 | 0.00 | 0.00 | 0.00 | 55 | 1012.7 |
| 20260505014601 | 60 | 190 | 6.0 | 13.0 | 0.00 | 0.00 | 0.00 | 55 | 1012.6 |
| 20260505014048 | 60 | 189 | 7.0 | 12.0 | 0.00 | 0.00 | 0.00 | 55 | 1012.7 |
| 20260505013547 | 60 | 181 | 6.0 | 12.0 | 0.00 | 0.00 | 0.00 | 55 | 1012.7 |
| 20260505013105 | 60 | 186 | 7.0 | 12.0 | 0.00 | 0.00 | 0.00 | 55 | 1012.6 |
| 20260505012548 | 61 | 194 | 8.0 | 12.0 | 0.00 | 0.00 | 0.00 | 54 | 1012.7 |
| 20260505012047 | 61 | 188 | 7.0 | 12.0 | 0.00 | 0.00 | 0.00 | 55 | 1012.6 |
| 20260505011552 | 61 | 179 | 7.0 | 12.0 | 0.00 | 0.00 | 0.00 | 54 | 1012.6 |
| 20260505011048 | 61 | 168 | 7.0 | 13.0 | 0.00 | 0.00 | 0.00 | 54 | 1012.5 |
| 20260505010545 | 61 | 182 | 7.0 | 13.0 | 0.00 | 0.00 | 0.00 | 54 | 1012.5 |
| 20260505005548 | 62 | 157 | 7.0 | 13.0 | 0.00 | 0.00 | 0.00 | 53 | 1012.3 |
| 20260505005048 | 62 | 174 | 7.0 | 13.0 | 0.00 | 0.00 | 0.00 | 53 | 1012.1 |
| 20260505004558 | 62 | 191 | 7.0 | 13.0 | 0.00 | 0.00 | 0.00 | 53 | 1012.1 |
| 20260505004046 | 62 | 186 | 7.0 | 16.0 | 0.00 | 0.00 | 0.00 | 53 | 1012.0 |
| 20260505003548 | 62 | 186 | 7.0 | 17.0 | 0.00 | 0.00 | 0.00 | 52 | 1011.9 |
| 20260505003053 | 63 | 188 | 10.0 | 17.0 | 0.00 | 0.00 | 0.00 | 52 | 1011.8 |
| 20260505002547 | 63 | 170 | 8.0 | 14.0 | 0.00 | 0.00 | 0.00 | 52 | 1011.7 |
| 20260505002049 | 63 | 200 | 7.0 | 16.0 | 0.00 | 0.00 | 0.00 | 51 | 1011.7 |
| 20260505001554 | 63 | 164 | 9.0 | 17.0 | 0.00 | 0.00 | 0.00 | 51 | 1011.8 |
| 20260505001050 | 64 | 200 | 10.0 | 17.0 | 0.00 | 0.00 | 0.00 | 50 | 1011.8 |
| 20260505000548 | 64 | 181 | 8.0 | 16.0 | 0.00 | 0.00 | 0.00 | 50 | 1011.6 |
| 20260505000114 | 64 | 176 | 8.0 | 14.0 | 0.00 | 0.00 | 0.00 | 50 | 1011.7 |
| 20260504235548 | 64 | 179 | 8.0 | 16.0 | 0.00 | 0.00 | 0.00 | 50 | 1011.8 |
| 20260504235049 | 65 | 174 | 9.0 | 16.0 | 0.00 | 0.00 | 0.00 | 49 | 1011.6 |
| 20260504234555 | 65 | 161 | 6.0 | 14.0 | 0.00 | 0.00 | 0.00 | 49 | 1011.6 |
| 20260504234049 | 65 | 165 | 6.0 | 14.0 | 0.00 | 0.00 | 0.00 | 48 | 1011.6 |
| 20260504233551 | 65 | 136 | 7.0 | 14.0 | 0.00 | 0.00 | 0.00 | 48 | 1011.6 |
| 20260504233055 | 66 | 174 | 7.0 | 14.0 | 0.00 | 0.00 | 0.00 | 48 | 1011.6 |
| 20260504232550 | 66 | 172 | 8.0 | 15.0 | 0.00 | 0.00 | 0.00 | 46 | 1011.5 |
| 20260504232050 | 66 | 194 | 8.0 | 19.0 | 0.00 | 0.00 | 0.00 | 46 | 1011.5 |
| 20260504231552 | 66 | 155 | 9.0 | 19.0 | 0.00 | 0.00 | 0.00 | 47 | 1011.6 |
| 20260504231049 | 66 | 192 | 9.0 | 17.0 | 0.00 | 0.00 | 0.00 | 47 | 1011.3 |
| 20260504230551 | 67 | 178 | 9.0 | 17.0 | 0.00 | 0.00 | 0.00 | 46 | 1011.3 |
| 20260504230104 | 67 | 160 | 7.0 | 13.0 | 0.00 | 0.00 | 0.00 | 47 | 1011.4 |
| 20260504225551 | 67 | 210 | 7.0 | 13.0 | 0.00 | 0.00 | 0.00 | 46 | 1011.6 |
| 20260504225049 | 68 | 181 | 6.0 | 17.0 | 0.00 | 0.00 | 0.00 | 47 | 1011.4 |
| 20260504224552 | 68 | 212 | 6.0 | 17.0 | 0.00 | 0.00 | 0.00 | 46 | 1011.5 |
| 20260504224051 | 68 | 197 | 7.0 | 15.0 | 0.00 | 0.00 | 0.00 | 46 | 1011.4 |
| 20260504223550 | 68 | 190 | 9.0 | 15.0 | 0.00 | 0.00 | 0.00 | 45 | 1011.4 |
| 20260504223104 | 69 | 186 | 7.0 | 15.0 | 0.00 | 0.00 | 0.00 | 46 | 1011.4 |
| 20260504222549 | 69 | 191 | 8.0 | 15.0 | 0.00 | 0.00 | 0.00 | 44 | 1011.5 |
| 20260504222050 | 69 | 224 | 7.0 | 15.0 | 0.00 | 0.00 | 0.00 | 45 | 1011.5 |
| 20260504221600 | 69 | 220 | 5.0 | 13.0 | 0.00 | 0.00 | 0.00 | 45 | 1011.6 |
| 20260504221049 | 69 | 254 | 6.0 | 16.0 | 0.00 | 0.00 | 0.00 | 45 | 1011.5 |
| 20260504220551 | 69 | 216 | 7.0 | 17.0 | 0.00 | 0.00 | 0.00 | 45 | 1011.7 |
| 20260504220059 | 69 | 281 | 8.0 | 17.0 | 0.00 | 0.00 | 0.00 | 46 | 1011.7 |
| 20260504215553 | 69 | 213 | 9.0 | 18.0 | 0.00 | 0.00 | 0.00 | 44 | 1011.6 |
| 20260504215054 | 69 | 223 | 8.0 | 18.0 | 0.00 | 0.00 | 0.00 | 46 | 1011.7 |
| 20260504214556 | 69 | 226 | 10.0 | 18.0 | 0.00 | 0.00 | 0.00 | 44 | 1011.7 |
| 20260504214050 | 69 | 219 | 10.0 | 18.0 | 0.00 | 0.00 | 0.00 | 44 | 1011.8 |
| 20260504213550 | 69 | 239 | 10.0 | 18.0 | 0.00 | 0.00 | 0.00 | 44 | 1011.8 |
| 20260504213053 | 69 | 219 | 10.0 | 18.0 | 0.00 | 0.00 | 0.00 | 44 | 1011.8 |
| 20260504212550 | 70 | 222 | 9.0 | 16.0 | 0.00 | 0.00 | 0.00 | 45 | 1012.0 |
| 20260504212053 | 70 | 223 | 5.0 | 17.0 | 0.00 | 0.00 | 0.00 | 46 | 1011.9 |
| 20260504211558 | 70 | 205 | 8.0 | 17.0 | 0.00 | 0.00 | 0.00 | 48 | 1011.9 |
| 20260504211051 | 70 | 231 | 6.0 | 19.0 | 0.00 | 0.00 | 0.00 | 44 | 1011.9 |
| 20260504210550 | 70 | 224 | 6.0 | 20.0 | 0.00 | 0.00 | 0.00 | 50 | 1011.8 |
| 20260504210055 | 69 | 212 | 11.0 | 20.0 | 0.00 | 0.00 | 0.00 | 47 | 1011.7 |
| 20260504205550 | 68 | 238 | 8.0 | 18.0 | 0.00 | 0.00 | 0.00 | 48 | 1011.7 |
| 20260504205051 | 67 | 228 | 7.0 | 18.0 | 0.00 | 0.00 | 0.00 | 50 | 1011.7 |
| 20260504204555 | 68 | 224 | 9.0 | 18.0 | 0.00 | 0.00 | 0.00 | 47 | 1011.8 |
| 20260504204050 | 69 | 279 | 10.0 | 16.0 | 0.00 | 0.00 | 0.00 | 46 | 1011.5 |
| 20260504203551 | 69 | 236 | 7.0 | 13.0 | 0.00 | 0.00 | 0.00 | 49 | 1011.5 |
| 20260504203103 | 68 | 244 | 8.0 | 13.0 | 0.00 | 0.00 | 0.00 | 48 | 1011.7 |
| 20260504202548 | 68 | 269 | 7.0 | 12.0 | 0.00 | 0.00 | 0.00 | 50 | 1011.7 |
| 20260504202049 | 68 | 241 | 5.0 | 14.0 | 0.00 | 0.00 | 0.00 | 50 | 1011.8 |
| 20260504201556 | 67 | 214 | 10.0 | 14.0 | 0.00 | 0.00 | 0.00 | 51 | 1012.0 |
| 20260504201050 | 68 | 179 | 7.0 | 19.0 | 0.00 | 0.00 | 0.00 | 56 | 1011.8 |
| 20260504200548 | 67 | 222 | 11.0 | 19.0 | 0.00 | 0.00 | 0.00 | 51 | 1011.9 |
| 20260504200053 | 67 | 212 | 8.0 | 17.0 | 0.00 | 0.00 | 0.00 | 54 | 1012.1 |
| 20260504195548 | 67 | 236 | 8.0 | 17.0 | 0.00 | 0.00 | 0.00 | 51 | 1012.0 |
| 20260504195048 | 66 | 234 | 10.0 | 16.0 | 0.00 | 0.00 | 0.00 | 53 | 1012.2 |
| 20260504194552 | 66 | 234 | 9.0 | 16.0 | 0.00 | 0.00 | 0.00 | 52 | 1012.1 |
| 20260504194048 | 66 | 252 | 5.0 | 15.0 | 0.00 | 0.00 | 0.00 | 54 | 1012.2 |
| 20260504193548 | 67 | 203 | 10.0 | 15.0 | 0.00 | 0.00 | 0.00 | 52 | 1012.3 |
| 20260504193051 | 68 | 217 | 4.0 | 11.0 | 0.00 | 0.00 | 0.00 | 54 | 1012.4 |
| 20260504192548 | 67 | 203 | 6.0 | 14.0 | 0.00 | 0.00 | 0.00 | 55 | 1012.5 |
| 20260504192050 | 66 | 221 | 7.0 | 15.0 | 0.00 | 0.00 | 0.00 | 54 | 1012.4 |
| 20260504191604 | 66 | 201 | 8.0 | 15.0 | 0.00 | 0.00 | 0.00 | 56 | 1012.5 |
| 20260504191048 | 66 | 223 | 8.0 | 15.0 | 0.00 | 0.00 | 0.00 | 55 | 1012.4 |
| 20260504190549 | 65 | 208 | 6.0 | 11.0 | 0.00 | 0.00 | 0.00 | 55 | 1012.8 |
| 20260504190107 | 65 | 193 | 6.0 | 11.0 | 0.00 | 0.00 | 0.00 | 55 | 1012.7 |
| 20260504185547 | 65 | 252 | 5.0 | 11.0 | 0.00 | 0.00 | 0.00 | 54 | 1012.7 |
| 20260504185048 | 65 | 293 | 2.0 | 11.0 | 0.00 | 0.00 | 0.00 | 55 | 1012.7 |
| 20260504184552 | 66 | 238 | 6.0 | 11.0 | 0.00 | 0.00 | 0.00 | 53 | 1012.9 |
| 20260504184048 | 65 | 324 | 5.0 | 11.0 | 0.00 | 0.00 | 0.00 | 53 | 1013.1 |
| 20260504183547 | 65 | 223 | 4.0 | 11.0 | 0.00 | 0.00 | 0.00 | 54 | 1013.3 |
| 20260504183051 | 65 | 326 | 5.0 | 11.0 | 0.00 | 0.00 | 0.00 | 56 | 1013.5 |
| 20260504182548 | 64 | 314 | 5.0 | 11.0 | 0.00 | 0.00 | 0.00 | 55 | 1013.4 |
| 20260504182050 | 64 | 332 | 6.0 | 11.0 | 0.00 | 0.00 | 0.00 | 54 | 1013.5 |
| 20260504181557 | 64 | 306 | 6.0 | 12.0 | 0.00 | 0.00 | 0.00 | 57 | 1013.4 |
| 20260504181048 | 63 | 308 | 6.0 | 15.0 | 0.00 | 0.00 | 0.00 | 55 | 1013.5 |
| 20260504180548 | 63 | 253 | 5.0 | 15.0 | 0.00 | 0.00 | 0.00 | 56 | 1013.4 |
| 20260504180107 | 63 | 278 | 6.0 | 21.0 | 0.00 | 0.00 | 0.00 | 54 | 1013.6 |
| 20260504175552 | 63 | 226 | 8.0 | 21.0 | 0.00 | 0.00 | 0.00 | 55 | 1013.5 |
| 20260504175050 | 63 | 251 | 10.0 | 18.0 | 0.00 | 0.00 | 0.00 | 55 | 1013.5 |
| 20260504174552 | 63 | 283 | 8.0 | 18.0 | 0.00 | 0.00 | 0.00 | 55 | 1013.5 |
| 20260504174048 | 63 | 314 | 8.0 | 18.0 | 0.00 | 0.00 | 0.00 | 54 | 1013.5 |
| 20260504173547 | 64 | 345 | 8.0 | 21.0 | 0.00 | 0.00 | 0.00 | 54 | 1013.7 |
| 20260504173052 | 63 | 293 | 10.0 | 21.0 | 0.00 | 0.00 | 0.00 | 52 | 1013.6 |
| 20260504172547 | 64 | 319 | 9.0 | 21.0 | 0.00 | 0.00 | 0.00 | 52 | 1013.4 |
| 20260504172048 | 64 | 288 | 7.0 | 18.0 | 0.00 | 0.00 | 0.00 | 54 | 1013.6 |
| 20260504171553 | 64 | 268 | 8.0 | 20.0 | 0.00 | 0.00 | 0.00 | 52 | 1013.5 |
| 20260504171048 | 64 | 250 | 9.0 | 20.0 | 0.00 | 0.00 | 0.00 | 54 | 1013.6 |
| 20260504170547 | 64 | 251 | 11.0 | 18.0 | 0.00 | 0.00 | 0.00 | 54 | 1013.4 |
| 20260504151048 | 56 | 253 | 6.0 | 16.0 | 0.00 | 0.00 | 0.00 | 61 | 1014.7 |
| 20260504150548 | 56 | 345 | 9.0 | 20.0 | 0.00 | 0.00 | 0.00 | 60 | 1014.7 |
| 20260504141049 | 54 | 219 | 5.0 | 11.0 | 0.00 | 0.00 | 0.00 | 61 | 1015.3 |
| 20260504140549 | 53 | 314 | 3.0 | 6.0 | 0.00 | 0.00 | 0.00 | 62 | 1015.2 |
| 20260504130550 | 48 | 209 | 4.0 | 7.0 | 0.00 | 0.00 | 0.00 | 68 | 1014.8 |
| 20260504110549 | 43 | 166 | 2.0 | 4.0 | 0.00 | 0.00 | 0.00 | 67 | 1013.8 |